TimeEST,TemperatureF,Dew PointF,Humidity,Sea Level PressureIn,VisibilityMPH,Wind Direction,Wind SpeedMPH,Gust SpeedMPH,PrecipitationIn,Events,Conditions,WindDirDegrees,DateUTC
12:58 AM,28.2,20.7,73,30.40,10.0,North,2.3,-,N/A,,Overcast,10,2013-12-01 05:58:00
1:22 AM,28.4,21.2,74,30.36,10.0,ENE,1.2,-,N/A,,Overcast,70,2013-12-01 06:22:00
1:53 AM,28.4,21.2,74,30.36,10.0,North,3.5,-,N/A,Snow,Light Snow,360,2013-12-01 06:53:00
1:58 AM,28.9,20.5,71,30.39,10.0,North,4.6,-,0.00,Snow,Light Snow,350,2013-12-01 06:58:00
2:47 AM,28.4,23.0,80,30.34,10.0,NNE,3.5,-,N/A,,Overcast,30,2013-12-01 07:47:00
2:58 AM,28.6,22.6,78,30.36,10.0,North,2.3,-,0.00,,Overcast,350,2013-12-01 07:58:00
3:24 AM,28.4,23.0,80,30.31,10.0,Variable,2.3,-,N/A,Snow,Light Snow,0,2013-12-01 08:24:00
3:33 AM,28.4,23.0,80,30.31,10.0,Variable,1.2,-,N/A,,Overcast,0,2013-12-01 08:33:00
3:58 AM,29.1,23.5,80,30.33,10.0,North,2.3,-,0.00,,Overcast,350,2013-12-01 08:58:00
4:48 AM,28.4,23.0,80,30.27,10.0,Variable,4.6,-,N/A,,Overcast,0,2013-12-01 09:48:00
4:58 AM,29.3,23.4,78,30.30,10.0,Variable,3.5,-,0.00,,Overcast,0,2013-12-01 09:58:00
4:59 AM,28.4,23.0,80,30.27,10.0,NE,3.5,-,N/A,,Overcast,50,2013-12-01 09:59:00
5:07 AM,28.4,23.0,80,30.27,10.0,NNW,5.8,-,N/A,,Overcast,340,2013-12-01 10:07:00
5:34 AM,28.4,24.8,86,30.27,10.0,North,3.5,-,N/A,,Overcast,360,2013-12-01 10:34:00
5:56 AM,28.4,26.6,93,30.26,10.0,NE,2.3,-,N/A,Snow,Light Snow,50,2013-12-01 10:56:00
5:58 AM,28.4,26.6,93,30.29,10.0,NE,2.3,-,0.00,Snow,Light Snow,40,2013-12-01 10:58:00
6:05 AM,28.4,26.6,93,30.26,10.0,NNE,3.5,-,N/A,,Overcast,30,2013-12-01 11:05:00
6:58 AM,28.9,26.6,91,30.29,10.0,NE,2.3,-,0.00,,Overcast,50,2013-12-01 11:58:00
7:21 AM,28.4,26.6,93,30.25,10.0,NNE,1.2,-,N/A,,Overcast,20,2013-12-01 12:21:00
7:58 AM,29.8,27.3,90,30.27,10.0,NW,2.3,-,N/A,,Overcast,320,2013-12-01 12:58:00
8:58 AM,31.1,28.0,88,30.26,10.0,West,2.3,-,N/A,,Overcast,260,2013-12-01 13:58:00
9:41 AM,32.0,28.4,87,30.22,10.0,Calm,Calm,-,N/A,,Overcast,0,2013-12-01 14:41:00
9:58 AM,33.1,28.6,84,30.25,10.0,NNW,2.3,-,N/A,,Overcast,330,2013-12-01 14:58:00
10:58 AM,33.3,28.2,82,30.22,10.0,North,2.3,-,N/A,,Overcast,10,2013-12-01 15:58:00
11:42 AM,35.6,30.2,81,30.16,10.0,North,2.3,-,N/A,,Overcast,350,2013-12-01 16:42:00
11:52 AM,37.4,30.2,75,30.15,10.0,Variable,1.2,-,N/A,,Overcast,0,2013-12-01 16:52:00
11:58 AM,37.0,30.4,77,30.18,10.0,NNW,2.3,-,N/A,,Overcast,340,2013-12-01 16:58:00
12:37 PM,39.2,32.0,75,30.13,10.0,Variable,1.2,-,N/A,,Overcast,0,2013-12-01 17:37:00
12:49 PM,39.2,32.0,75,30.12,10.0,North,1.2,-,N/A,,Overcast,10,2013-12-01 17:49:00
12:58 PM,39.2,32.9,78,30.15,10.0,NNW,1.2,-,N/A,,Overcast,330,2013-12-01 17:58:00
1:10 PM,39.2,32.0,75,30.11,10.0,Variable,1.2,-,N/A,,Overcast,0,2013-12-01 18:10:00
1:37 PM,41.0,32.0,70,30.10,10.0,North,3.5,-,N/A,,Overcast,350,2013-12-01 18:37:00
1:40 PM,41.0,32.0,70,30.10,10.0,NNW,3.5,-,N/A,,Overcast,330,2013-12-01 18:40:00
1:47 PM,41.0,32.0,70,30.09,10.0,NW,3.5,-,N/A,,Overcast,320,2013-12-01 18:47:00
1:54 PM,41.0,33.8,76,30.09,10.0,NNW,4.6,-,N/A,,Overcast,340,2013-12-01 18:54:00
1:58 PM,40.6,33.8,77,30.12,10.0,NNW,3.5,-,N/A,,Overcast,340,2013-12-01 18:58:00
2:21 PM,41.0,33.8,76,30.09,10.0,NNW,4.6,-,N/A,,Overcast,340,2013-12-01 19:21:00
2:29 PM,41.0,33.8,76,30.08,10.0,North,2.3,-,N/A,,Overcast,350,2013-12-01 19:29:00
2:31 PM,41.0,33.8,76,30.08,10.0,NNW,3.5,-,N/A,,Overcast,340,2013-12-01 19:31:00
2:41 PM,41.0,33.8,76,30.08,10.0,North,2.3,-,N/A,,Overcast,360,2013-12-01 19:41:00
2:43 PM,41.0,33.8,76,30.08,10.0,North,2.3,-,N/A,,Overcast,360,2013-12-01 19:43:00
2:58 PM,40.8,34.0,77,30.11,10.0,North,2.3,-,N/A,,Overcast,350,2013-12-01 19:58:00
3:57 PM,37.4,32.0,81,30.07,10.0,WNW,4.6,-,N/A,,Overcast,300,2013-12-01 20:57:00
3:58 PM,37.4,32.0,81,30.10,10.0,WNW,3.5,-,N/A,,Overcast,300,2013-12-01 20:58:00
4:01 PM,37.4,32.0,81,30.07,10.0,NW,3.5,-,N/A,,Overcast,310,2013-12-01 21:01:00
4:28 PM,37.4,32.0,81,30.07,10.0,NNE,2.3,-,N/A,,Overcast,20,2013-12-01 21:28:00
4:29 PM,37.4,32.0,81,30.07,10.0,NNE,2.3,-,N/A,,Overcast,30,2013-12-01 21:29:00
4:31 PM,35.6,32.0,87,30.06,10.0,NE,2.3,-,N/A,,Overcast,40,2013-12-01 21:31:00
4:56 PM,37.4,32.0,81,30.07,10.0,North,2.3,-,N/A,,Overcast,360,2013-12-01 21:56:00
4:58 PM,37.4,32.0,81,30.10,10.0,North,1.2,-,N/A,,Overcast,10,2013-12-01 21:58:00
5:10 PM,37.4,32.0,81,30.07,10.0,NNW,4.6,-,N/A,,Overcast,340,2013-12-01 22:10:00
5:50 PM,37.4,32.0,81,30.06,10.0,NNE,4.6,-,N/A,,Overcast,30,2013-12-01 22:50:00
5:58 PM,37.0,32.5,84,30.09,10.0,NNE,3.5,-,N/A,,Overcast,30,2013-12-01 22:58:00
6:58 PM,36.1,32.7,87,30.09,10.0,NNW,3.5,-,N/A,,Overcast,340,2013-12-01 23:58:00
7:00 PM,35.6,32.0,87,30.06,10.0,NNW,3.5,-,N/A,,Overcast,340,2013-12-02 00:00:00
7:13 PM,35.6,32.0,87,30.05,10.0,North,2.3,-,N/A,,Overcast,10,2013-12-02 00:13:00
7:36 PM,35.6,32.0,87,30.05,10.0,North,2.3,-,N/A,,Overcast,350,2013-12-02 00:36:00
7:42 PM,35.6,32.0,87,30.05,10.0,NNW,3.5,-,N/A,,Overcast,330,2013-12-02 00:42:00
7:51 PM,35.6,32.0,87,30.05,10.0,North,2.3,-,N/A,,Overcast,360,2013-12-02 00:51:00
7:55 PM,35.6,32.0,87,30.05,10.0,North,2.3,-,N/A,,Overcast,10,2013-12-02 00:55:00
7:58 PM,35.2,32.7,91,30.08,10.0,North,2.3,-,N/A,,Overcast,10,2013-12-02 00:58:00
8:39 PM,35.6,32.0,87,30.04,10.0,NNW,2.3,-,N/A,,Overcast,330,2013-12-02 01:39:00
8:57 PM,35.6,32.0,87,30.04,10.0,North,2.3,-,N/A,,Overcast,350,2013-12-02 01:57:00
8:58 PM,35.6,32.0,87,30.07,10.0,North,2.3,-,N/A,,Overcast,350,2013-12-02 01:58:00
9:22 PM,35.6,32.0,87,30.04,10.0,NNE,2.3,-,N/A,,Overcast,30,2013-12-02 02:22:00
9:31 PM,35.6,32.0,87,30.04,10.0,North,2.3,-,N/A,,Overcast,350,2013-12-02 02:31:00
9:39 PM,35.6,32.0,87,30.04,10.0,NW,2.3,-,N/A,,Overcast,320,2013-12-02 02:39:00
9:47 PM,35.6,32.0,87,30.03,10.0,NNW,1.2,-,N/A,,Overcast,340,2013-12-02 02:47:00
9:56 PM,35.6,32.0,87,30.03,10.0,North,2.3,-,N/A,,Overcast,10,2013-12-02 02:56:00
9:58 PM,35.6,32.0,87,30.06,10.0,North,2.3,-,N/A,,Overcast,10,2013-12-02 02:58:00
10:58 PM,35.2,33.1,92,30.06,10.0,NNE,2.3,-,N/A,,Overcast,20,2013-12-02 03:58:00
11:13 PM,35.6,32.0,87,30.02,10.0,NNE,4.6,-,N/A,,Overcast,30,2013-12-02 04:13:00
11:25 PM,35.6,32.0,87,30.02,10.0,NNE,2.3,-,N/A,,Overcast,20,2013-12-02 04:25:00
11:58 PM,35.8,33.3,91,30.05,10.0,North,2.3,-,N/A,,Overcast,350,2013-12-02 04:58:00